Location: Sungai Apap
(2.6167°N, 113.3833°E)
Time: 16:24:21
(UTC+00:00)

Cosmos 1898 Rocket - Pass Details

Date: 25 May 2024
Orbit: 752 x 780 km, 74.0° (Epoch: 12 June)

Event Time Altitude Azimuth Distance (km) Brightness Sun altitude
Exits shadow 20:29:39 46° 173° (S) 1,028 3.9 -25.3°
Maximum altitude 20:31:10 73° 102° (ESE) 806 3.6 -25.0°
Drops below altitude 10° 20:36:23 10° 18° (NNE) 2,300 6.5 -23.8°
Sets 20:38:45 0° 16° (NNE) 3,220 7.3 -23.3°
